Terminal Aerodrome Forecast
Issued by NWS Pittsburgh, PA

Current Version | Previous Version | Text Only | Print | Product List | Glossary Off
Versions: 1 2 3 4 5 6 7 8 9 10 11 12 13 14 15 16 17 18 19 20 21 22 23 24 25 26 27 28 29 30 31 32 33 34 35 36

000
FTUS41 KPBZ 260500 AAB
TAFPIT
TAF AMD
KPIT 260510Z 2605/2706 24008KT P6SM BKN250
     FM260800 24006KT P6SM BKN025
     FM261200 VRB04KT 3SM -SHRA BR OVC012
     FM261700 32008KT 2SM -SHRA OVC008
     FM262100 33008KT P6SM BKN015=

USA.gov is the U.S. government's official web portal to all federal, state and local government web resources and services.